Regional Weather Roundup
Issued by NWS Kansas City/Pleasant Hill, MO

Home | Current Version | Previous Version | Graphics & Text | Print | Product List | Glossary Off
Versions: 1 2 3 4 5 6 7 8 9 10 11 12 13 14 15 16 17 18 19 20 21 22 23 24 25 26 27 28 29 30 31 32 33 34 35 36 37 38 39 40 41 42 43 44 45 46 47 48 49

000
ASUS43 KEAX 030510
RWREAX

WEATHER ROUNDUP FOR EASTERN KANSAS AND NORTHWEST MISSOURI
NATIONAL WEATHER SERVICE KANSAS CITY/PLEASANT HILL MO
1200 AM CDT THU SEP 03 2015

KSZ040-057-103>105-MOZ028-029-037-043-030600-
...KANSAS CITY METROPOLITAN AREA...

CITY           SKY/WX    TMP DP  RH WIND       PRES   REMARKS
K.C. INTL      PTCLDY    75  69  81 S10       29.96S
K.C. DOWNTOWN  CLEAR     79  69  71 S9        29.95S
LEES SUMMIT    CLEAR     77  67  71 S7        29.98S
OLATHE - IXD   CLEAR     74  69  85 S7        29.97S
OLATHE - OJC   CLEAR     73  69  87 S5        29.97S
LAWRENCE       CLEAR     75  70  84 S7        29.94F

$$

MOZ001>008-011>017-020>025-030>033-038>040-044>046-053-054-030600-
...NORTHERN AND CENTRAL MISSOURI...

CITY           SKY/WX    TMP DP  RH WIND       PRES   REMARKS
ST. JOSEPH     CLEAR     77  70  79 S7        29.93S
MOSBY          CLEAR     73  68  83 CALM      29.96F
WARRENSBURG    CLEAR     73  68  83 S3        29.98S
WHITEMAN AFB   PTCLDY    74  67  81 S5        29.97F
CLINTON        CLEAR     75  70  83 CALM      29.99S
SEDALIA        PTCLDY    72  67  84 S7        30.00S
WARSAW         NOT AVBL
CHILLICOTHE      N/A     75  70  84 CALM      29.97S
KIRKSVILLE     PTCLDY    76  68  76 S7        29.98S

$$

MOZ041-047>049-056>058-063>065-088>090-097-030600-
...EASTERN AND SOUTHERN MISSOURI...

CITY           SKY/WX    TMP DP  RH WIND       PRES   REMARKS
ST. LOUIS INTL CLEAR     82  69  64 S6        30.00F
SPIRIT OF STL  CLEAR     72  71  97 CALM      29.99S FOG
COLUMBIA       CLEAR     72  67  84 S7        30.00S
JEFFERSON CITY CLEAR     73  67  81 E3        29.99R
ROLLA          CLEAR     72  67  84 S7        30.01F
OSAGE BEACH    CLEAR     73  66  78 SE5       30.01S
SPRINGFIELD    CLEAR     73  67  81 S8        30.02S
BRANSON        CLEAR     73  64  73 CALM      30.05S
JOPLIN         CLEAR     75  68  78 SE6       30.00S
WEST PLAINS    CLEAR     75  67  76 CALM      30.06S

$$

IAZ060-094-KSZ022-034>040-054-083-096-NEZ052-066-093-030600-
...KANSAS...SOUTHEAST NEBRASKA AND IOWA...

CITY           SKY/WX    TMP DP  RH WIND       PRES   REMARKS
TOPEKA         CLEAR     79  68  69 S10       29.93S
MANHATTAN      CLEAR     80  67  64 S8        29.90S
EMPORIA        CLEAR     74  68  81 S12       29.95S
CHANUTE        CLEAR     73  69  87 S7        29.97S
WICHITA        PTCLDY    77  66  68 S12       29.93S
OMAHA          CLEAR     79  70  74 S13       29.87S
LINCOLN        CLEAR     76  67  73 S8        29.87R
FALLS CITY     CLEAR     79  69  71 S12       29.90S
LAMONI         CLEAR     75  69  81 S8        29.94F
DES MOINES     PTCLDY    76  70  82 S8        29.91F

$$




USA.gov is the U.S. government's official web portal to all federal, state and local government web resources and services.